Location: ?????????
(41.1143°N, 22.7905°E)
Time: 08:33:50
(UTC+00:00)

COSMO-SKYMED 1 - Pass Details

Date: 18 March 2026
Orbit: 576 x 578 km, 97.9° (Epoch: 18 April)

Event Time Altitude Azimuth Distance (km) Brightness Sun altitude
Rises 03:50:45 0° 157° (SSE) 2,779 6.1 -9.3°
Reaches altitude 10° 03:52:54 10° 154° (SSE) 1,885 5.3 -8.9°
Maximum altitude 03:56:56 61° 74° (ENE) 661 3.1 -8.2°
Drops below altitude 10° 04:00:59 10° 355° (N) 1,899 5.1 -7.4°
Sets 04:03:10 0° 352° (N) 2,802 5.9 -7.0°
